Year,Month,Day,Hour,Minute,Value (Times are PST for temperature in C)
2012,08,17,00,00,20.60
2012,08,17,00,01,20.60
2012,08,17,00,02,20.60
2012,08,17,00,03,20.50
2012,08,17,00,04,20.50
2012,08,17,00,05,20.50
2012,08,17,00,06,20.50
2012,08,17,00,07,20.50
2012,08,17,00,08,20.50
2012,08,17,00,09,20.60
2012,08,17,00,10,20.60
2012,08,17,00,11,20.60
2012,08,17,00,12,20.60
2012,08,17,00,13,20.60
2012,08,17,00,14,20.60
2012,08,17,00,15,20.50
2012,08,17,00,16,20.50
2012,08,17,00,17,20.50
2012,08,17,00,18,20.40
2012,08,17,00,19,20.40
2012,08,17,00,20,20.40
2012,08,17,00,21,20.30
2012,08,17,00,22,20.30
2012,08,17,00,23,20.30
2012,08,17,00,24,20.30
2012,08,17,00,25,20.20
2012,08,17,00,26,20.20
2012,08,17,00,27,20.20
2012,08,17,00,28,20.20
2012,08,17,00,29,20.20
2012,08,17,00,30,20.20
2012,08,17,00,31,20.10
2012,08,17,00,32,20.10
2012,08,17,00,33,20.10
2012,08,17,00,34,20.00
2012,08,17,00,35,20.00
2012,08,17,00,36,19.90
2012,08,17,00,37,19.90
2012,08,17,00,38,19.90
2012,08,17,00,39,19.80
2012,08,17,00,40,19.80
2012,08,17,00,41,19.80
2012,08,17,00,42,19.70
2012,08,17,00,43,19.70
2012,08,17,00,44,19.60
2012,08,17,00,45,19.60
2012,08,17,00,46,19.60
2012,08,17,00,47,19.50
2012,08,17,00,48,19.50
2012,08,17,00,49,19.40
2012,08,17,00,50,19.40
2012,08,17,00,51,19.30
2012,08,17,00,52,19.20
2012,08,17,00,53,19.10
2012,08,17,00,54,19.10
2012,08,17,00,55,19.00
2012,08,17,00,56,18.90
2012,08,17,00,57,18.80
2012,08,17,00,58,18.80
2012,08,17,00,59,18.70
2012,08,17,01,00,18.60
2012,08,17,01,01,18.60
2012,08,17,01,02,18.50
2012,08,17,01,03,18.50
2012,08,17,01,04,18.40
2012,08,17,01,05,18.40
2012,08,17,01,06,18.30
2012,08,17,01,07,18.30
2012,08,17,01,08,18.30
2012,08,17,01,09,18.30
2012,08,17,01,10,18.20
2012,08,17,01,11,18.20
2012,08,17,01,12,18.10
2012,08,17,01,13,18.10
2012,08,17,01,14,18.10
2012,08,17,01,15,18.00
2012,08,17,01,16,17.90
2012,08,17,01,17,17.90
2012,08,17,01,18,17.80
2012,08,17,01,19,17.80
2012,08,17,01,20,17.80
2012,08,17,01,21,17.80
2012,08,17,01,22,17.70
2012,08,17,01,23,17.70
2012,08,17,01,24,17.70
2012,08,17,01,25,17.70
2012,08,17,01,26,17.70
2012,08,17,01,27,17.60
2012,08,17,01,28,17.60
2012,08,17,01,29,17.60
2012,08,17,01,30,17.60
2012,08,17,01,31,17.60
2012,08,17,01,32,17.60
2012,08,17,01,33,17.60
2012,08,17,01,34,17.60
2012,08,17,01,35,17.60
2012,08,17,01,36,17.60
2012,08,17,01,37,17.60
2012,08,17,01,38,17.60
2012,08,17,01,39,17.60
2012,08,17,01,40,17.60
2012,08,17,01,41,17.70
2012,08,17,01,42,17.70
2012,08,17,01,43,17.80
2012,08,17,01,44,17.80
2012,08,17,01,45,17.90
2012,08,17,01,46,17.90
2012,08,17,01,47,18.00
2012,08,17,01,48,18.00
2012,08,17,01,49,18.00
2012,08,17,01,50,18.00
2012,08,17,01,51,18.10
2012,08,17,01,52,18.10
2012,08,17,01,53,18.10
2012,08,17,01,54,18.10
2012,08,17,01,55,18.20
2012,08,17,01,56,18.30
2012,08,17,01,57,18.50
2012,08,17,01,58,18.60
2012,08,17,01,59,18.80
2012,08,17,02,00,18.90
2012,08,17,02,01,19.00
2012,08,17,02,02,19.10
2012,08,17,02,03,19.20
2012,08,17,02,04,19.20
2012,08,17,02,05,19.20
2012,08,17,02,06,19.30
2012,08,17,02,07,19.30
2012,08,17,02,08,19.30
2012,08,17,02,09,19.30
2012,08,17,02,10,19.30
2012,08,17,02,11,19.30
2012,08,17,02,12,19.30
2012,08,17,02,13,19.30
2012,08,17,02,14,19.30
2012,08,17,02,15,19.20
2012,08,17,02,16,19.20
2012,08,17,02,17,19.20
2012,08,17,02,18,19.10
2012,08,17,02,19,19.10
2012,08,17,02,20,19.10
2012,08,17,02,21,19.10
2012,08,17,02,22,19.10
2012,08,17,02,23,19.10
2012,08,17,02,24,19.20
2012,08,17,02,25,19.30
2012,08,17,02,26,19.30
2012,08,17,02,27,19.40
2012,08,17,02,28,19.50
2012,08,17,02,29,19.50
2012,08,17,02,30,19.60
2012,08,17,02,31,19.70
2012,08,17,02,32,19.70
2012,08,17,02,33,19.70
2012,08,17,02,34,19.80
2012,08,17,02,35,19.80
2012,08,17,02,36,19.90
2012,08,17,02,37,20.00
2012,08,17,02,38,20.10
2012,08,17,02,39,20.20
2012,08,17,02,40,20.20
2012,08,17,02,41,20.20
2012,08,17,02,42,20.20
2012,08,17,02,43,20.20
2012,08,17,02,44,20.10
2012,08,17,02,45,20.10
2012,08,17,02,46,20.00
2012,08,17,02,47,20.00
2012,08,17,02,48,19.90
2012,08,17,02,49,20.00
2012,08,17,02,50,20.00
2012,08,17,02,51,20.00
2012,08,17,02,52,19.90
2012,08,17,02,53,19.90
2012,08,17,02,54,19.90
2012,08,17,02,55,20.00
2012,08,17,02,56,20.00
2012,08,17,02,57,19.90
2012,08,17,02,58,19.90
2012,08,17,02,59,19.80
2012,08,17,03,00,19.70
2012,08,17,03,01,19.60
2012,08,17,03,02,19.60
2012,08,17,03,03,19.60
2012,08,17,03,04,19.60
2012,08,17,03,05,19.50
2012,08,17,03,06,19.50
2012,08,17,03,07,19.60
2012,08,17,03,08,19.60
2012,08,17,03,09,19.50
2012,08,17,03,10,19.50
2012,08,17,03,11,19.50
2012,08,17,03,12,19.50
2012,08,17,03,13,19.50
2012,08,17,03,14,19.40
2012,08,17,03,15,19.40
2012,08,17,03,16,19.40
2012,08,17,03,17,19.30
2012,08,17,03,18,19.30
2012,08,17,03,19,19.20
2012,08,17,03,20,19.10
2012,08,17,03,21,19.10
2012,08,17,03,22,19.00
2012,08,17,03,23,18.90
2012,08,17,03,24,18.90
2012,08,17,03,25,18.80
2012,08,17,03,26,18.80
2012,08,17,03,27,18.80
2012,08,17,03,28,18.70
2012,08,17,03,29,18.70
2012,08,17,03,30,18.70
2012,08,17,03,31,18.60
2012,08,17,03,32,18.60
2012,08,17,03,33,18.60
2012,08,17,03,34,18.60
2012,08,17,03,35,18.60
2012,08,17,03,36,18.50
2012,08,17,03,37,18.50
2012,08,17,03,38,18.40
2012,08,17,03,39,18.40
2012,08,17,03,40,18.40
2012,08,17,03,41,18.30
2012,08,17,03,42,18.30
2012,08,17,03,43,18.30
2012,08,17,03,44,18.30
2012,08,17,03,45,18.30
2012,08,17,03,46,18.30
2012,08,17,03,47,18.30
2012,08,17,03,48,18.20
2012,08,17,03,49,18.10
2012,08,17,03,50,18.10
2012,08,17,03,51,18.00
2012,08,17,03,52,17.90
2012,08,17,03,53,17.80
2012,08,17,03,54,17.80
2012,08,17,03,55,17.80
2012,08,17,03,56,17.70
2012,08,17,03,57,17.70
2012,08,17,03,58,17.60
2012,08,17,03,59,17.60
2012,08,17,04,00,17.50
2012,08,17,04,01,17.50
2012,08,17,04,02,17.40
2012,08,17,04,03,17.40
2012,08,17,04,04,17.40
2012,08,17,04,05,17.30
2012,08,17,04,06,17.30
2012,08,17,04,07,17.30
2012,08,17,04,08,17.20
2012,08,17,04,09,17.20
2012,08,17,04,10,17.10
2012,08,17,04,11,17.10
2012,08,17,04,12,17.00
2012,08,17,04,13,17.00
2012,08,17,04,14,16.90
2012,08,17,04,15,16.90
2012,08,17,04,16,16.80
2012,08,17,04,17,16.80
2012,08,17,04,18,16.80
2012,08,17,04,19,16.70
2012,08,17,04,20,16.70
2012,08,17,04,21,16.70
2012,08,17,04,22,16.70
2012,08,17,04,23,16.60
2012,08,17,04,24,16.60
2012,08,17,04,25,16.60
2012,08,17,04,26,16.60
2012,08,17,04,27,16.60
2012,08,17,04,28,16.60
2012,08,17,04,29,16.60
2012,08,17,04,30,16.50
2012,08,17,04,31,16.50
2012,08,17,04,32,16.50
2012,08,17,04,33,16.40
2012,08,17,04,34,16.40
2012,08,17,04,35,16.40
2012,08,17,04,36,16.30
2012,08,17,04,37,16.30
2012,08,17,04,38,16.30
2012,08,17,04,39,16.30
2012,08,17,04,40,16.30
2012,08,17,04,41,16.30
2012,08,17,04,42,16.30
2012,08,17,04,43,16.30
2012,08,17,04,44,16.30
2012,08,17,04,45,16.30
2012,08,17,04,46,16.40
2012,08,17,04,47,16.40
2012,08,17,04,48,16.40
2012,08,17,04,49,16.40
2012,08,17,04,50,16.40
2012,08,17,04,51,16.40
2012,08,17,04,52,16.40
2012,08,17,04,53,16.40
2012,08,17,04,54,16.40
2012,08,17,04,55,16.30
2012,08,17,04,56,16.30
2012,08,17,04,57,16.30
2012,08,17,04,58,16.20
2012,08,17,04,59,16.20
2012,08,17,05,00,16.20
2012,08,17,05,01,16.20
2012,08,17,05,02,16.10
2012,08,17,05,03,16.10
2012,08,17,05,04,16.10
2012,08,17,05,05,16.10
2012,08,17,05,06,16.10
2012,08,17,05,07,16.00
2012,08,17,05,08,16.00
2012,08,17,05,09,16.00
2012,08,17,05,10,16.00
2012,08,17,05,11,16.00
2012,08,17,05,12,16.00
2012,08,17,05,13,16.00
2012,08,17,05,14,16.00
2012,08,17,05,15,16.00
2012,08,17,05,16,16.00
2012,08,17,05,17,16.00
2012,08,17,05,18,16.00
2012,08,17,05,19,16.00
2012,08,17,05,20,16.10
2012,08,17,05,21,16.10
2012,08,17,05,22,16.10
2012,08,17,05,23,16.10
2012,08,17,05,24,16.10
2012,08,17,05,25,16.10
2012,08,17,05,26,16.10
2012,08,17,05,27,16.00
2012,08,17,05,28,16.00
2012,08,17,05,29,16.00
2012,08,17,05,30,16.00
2012,08,17,05,31,15.90
2012,08,17,05,32,15.90
2012,08,17,05,33,15.90
2012,08,17,05,34,15.90
2012,08,17,05,35,15.90
2012,08,17,05,36,15.80
2012,08,17,05,37,15.80
2012,08,17,05,38,15.80
2012,08,17,05,39,15.80
2012,08,17,05,40,15.80
2012,08,17,05,41,15.80
2012,08,17,05,42,15.80
2012,08,17,05,43,15.70
2012,08,17,05,44,15.70
2012,08,17,05,45,15.70
2012,08,17,05,46,15.80
2012,08,17,05,47,15.80
2012,08,17,05,48,15.80
2012,08,17,05,49,15.80
2012,08,17,05,50,15.80
2012,08,17,05,51,15.80
2012,08,17,05,52,15.80
2012,08,17,05,53,15.80
2012,08,17,05,54,15.80
2012,08,17,05,55,15.80
2012,08,17,05,56,15.80
2012,08,17,05,57,15.80
2012,08,17,05,58,15.80
2012,08,17,05,59,15.80
2012,08,17,06,00,15.80
2012,08,17,06,01,15.80
2012,08,17,06,02,15.80
2012,08,17,06,03,15.80
2012,08,17,06,04,15.80
2012,08,17,06,05,15.80
2012,08,17,06,06,15.80
2012,08,17,06,07,15.90
2012,08,17,06,08,15.90
2012,08,17,06,09,15.90
2012,08,17,06,10,15.90
2012,08,17,06,11,15.80
2012,08,17,06,12,15.80
2012,08,17,06,13,15.80
2012,08,17,06,14,15.70
2012,08,17,06,15,15.70
2012,08,17,06,16,15.70
2012,08,17,06,17,15.60
2012,08,17,06,18,15.60
2012,08,17,06,19,15.60
2012,08,17,06,20,15.50
2012,08,17,06,21,15.50
2012,08,17,06,22,15.50
2012,08,17,06,23,15.40
2012,08,17,06,24,15.40
2012,08,17,06,25,15.40
2012,08,17,06,26,15.40
2012,08,17,06,27,15.40
2012,08,17,06,28,15.40
2012,08,17,06,29,15.30
2012,08,17,06,30,15.30
2012,08,17,06,31,15.30
2012,08,17,06,32,15.20
2012,08,17,06,33,15.20
2012,08,17,06,34,15.20
2012,08,17,06,35,15.20
2012,08,17,06,36,15.20
2012,08,17,06,37,15.20
2012,08,17,06,38,15.20
2012,08,17,06,39,15.20
2012,08,17,06,40,15.20
2012,08,17,06,41,15.20
2012,08,17,06,42,15.20
2012,08,17,06,43,15.20
2012,08,17,06,44,15.20
2012,08,17,06,45,15.30
2012,08,17,06,46,15.30
2012,08,17,06,47,15.30
2012,08,17,06,48,15.30
2012,08,17,06,49,15.40
2012,08,17,06,50,15.40
2012,08,17,06,51,15.40
2012,08,17,06,52,15.40
2012,08,17,06,53,15.40
2012,08,17,06,54,15.50
2012,08,17,06,55,15.50
2012,08,17,06,56,15.50
2012,08,17,06,57,15.60
2012,08,17,06,58,15.60
2012,08,17,06,59,15.60
2012,08,17,07,00,15.60
2012,08,17,07,01,15.70
2012,08,17,07,02,15.70
2012,08,17,07,03,15.80
2012,08,17,07,04,15.80
2012,08,17,07,05,15.90
2012,08,17,07,06,15.90
2012,08,17,07,07,16.00
2012,08,17,07,08,16.00
2012,08,17,07,09,16.10
2012,08,17,07,10,16.20
2012,08,17,07,11,16.20
2012,08,17,07,12,16.30
2012,08,17,07,13,16.30
2012,08,17,07,14,16.30
2012,08,17,07,15,16.40
2012,08,17,07,16,16.50
2012,08,17,07,17,16.50
2012,08,17,07,18,16.60
2012,08,17,07,19,16.70
2012,08,17,07,20,16.70
2012,08,17,07,21,16.80
2012,08,17,07,22,16.90
2012,08,17,07,23,16.90
2012,08,17,07,24,17.00
2012,08,17,07,25,17.00
2012,08,17,07,26,17.10
2012,08,17,07,27,17.20
2012,08,17,07,28,17.20
2012,08,17,07,29,17.30
2012,08,17,07,30,17.40
2012,08,17,07,31,17.40
2012,08,17,07,32,17.50
2012,08,17,07,33,17.60
2012,08,17,07,34,17.60
2012,08,17,07,35,17.70
2012,08,17,07,36,17.70
2012,08,17,07,37,17.80
2012,08,17,07,38,17.80
2012,08,17,07,39,17.90
2012,08,17,07,40,18.00
2012,08,17,07,41,18.10
2012,08,17,07,42,18.20
2012,08,17,07,43,18.20
2012,08,17,07,44,18.30
2012,08,17,07,45,18.30
2012,08,17,07,46,18.40
2012,08,17,07,47,18.40
2012,08,17,07,48,18.50
2012,08,17,07,49,18.60
2012,08,17,07,50,18.70
2012,08,17,07,51,18.80
2012,08,17,07,52,18.90
2012,08,17,07,53,19.00
2012,08,17,07,54,19.10
2012,08,17,07,55,19.20
2012,08,17,07,56,19.30
2012,08,17,07,57,19.40
2012,08,17,07,58,19.50
2012,08,17,07,59,19.60
2012,08,17,08,00,19.70
2012,08,17,08,01,19.80
2012,08,17,08,02,20.00
2012,08,17,08,03,20.20
2012,08,17,08,04,20.40
2012,08,17,08,05,20.60
2012,08,17,08,06,20.80
2012,08,17,08,07,21.00
2012,08,17,08,08,21.10
2012,08,17,08,09,21.20
2012,08,17,08,10,21.30
2012,08,17,08,11,21.40
2012,08,17,08,12,21.50
2012,08,17,08,13,21.60
2012,08,17,08,14,21.70
2012,08,17,08,15,21.80
2012,08,17,08,16,21.80
2012,08,17,08,17,21.90
2012,08,17,08,18,21.90
2012,08,17,08,19,21.90
2012,08,17,08,20,21.80
2012,08,17,08,21,21.80
2012,08,17,08,22,21.80
2012,08,17,08,23,21.70
2012,08,17,08,24,21.70
2012,08,17,08,25,21.70
2012,08,17,08,26,21.70
2012,08,17,08,27,21.60
2012,08,17,08,28,21.60
2012,08,17,08,29,21.60
2012,08,17,08,30,21.60
2012,08,17,08,31,21.60
2012,08,17,08,32,21.60
2012,08,17,08,33,21.60
2012,08,17,08,34,21.70
2012,08,17,08,35,21.70
2012,08,17,08,36,21.70
2012,08,17,08,37,21.70
2012,08,17,08,38,21.70
2012,08,17,08,39,21.70
2012,08,17,08,40,21.70
2012,08,17,08,41,21.70
2012,08,17,08,42,21.70
2012,08,17,08,43,21.80
2012,08,17,08,44,21.80
2012,08,17,08,45,21.80
2012,08,17,08,46,21.90
2012,08,17,08,47,22.00
2012,08,17,08,48,22.00
2012,08,17,08,49,22.10
2012,08,17,08,50,22.20
2012,08,17,08,51,22.20
2012,08,17,08,52,22.20
2012,08,17,08,53,22.20
2012,08,17,08,54,22.30
2012,08,17,08,55,22.30
2012,08,17,08,56,22.40
2012,08,17,08,57,22.40
2012,08,17,08,58,22.50
2012,08,17,08,59,22.60
2012,08,17,09,00,22.70
2012,08,17,09,01,22.80
2012,08,17,09,02,23.00
2012,08,17,09,03,23.10
2012,08,17,09,04,23.20
2012,08,17,09,05,23.20
2012,08,17,09,06,23.20
2012,08,17,09,07,23.20
2012,08,17,09,08,23.20
2012,08,17,09,09,23.20
2012,08,17,09,10,23.20
2012,08,17,09,11,23.20
2012,08,17,09,12,23.20
2012,08,17,09,13,23.20
2012,08,17,09,14,23.20
2012,08,17,09,15,23.20
2012,08,17,09,16,23.20
2012,08,17,09,17,23.20
2012,08,17,09,18,23.20
2012,08,17,09,19,23.30
2012,08,17,09,20,23.30
2012,08,17,09,21,23.30
2012,08,17,09,22,23.20
2012,08,17,09,23,23.20
2012,08,17,09,24,23.10
2012,08,17,09,25,23.00
2012,08,17,09,26,23.00
2012,08,17,09,27,22.90
2012,08,17,09,28,22.80
2012,08,17,09,29,22.80
2012,08,17,09,30,22.70
2012,08,17,09,31,22.70
2012,08,17,09,32,22.70
2012,08,17,09,33,22.60
2012,08,17,09,34,22.60
2012,08,17,09,35,22.60
2012,08,17,09,36,22.60
2012,08,17,09,37,22.70
2012,08,17,09,38,22.70
2012,08,17,09,39,22.80
2012,08,17,09,40,22.80
2012,08,17,09,41,22.90
2012,08,17,09,42,23.00
2012,08,17,09,43,23.10
2012,08,17,09,44,23.20
2012,08,17,09,45,23.30
2012,08,17,09,46,23.50
2012,08,17,09,47,23.60
2012,08,17,09,48,23.60
2012,08,17,09,49,23.60
2012,08,17,09,50,23.50
2012,08,17,09,51,23.40
2012,08,17,09,52,23.30
2012,08,17,09,53,23.30
2012,08,17,09,54,23.30
2012,08,17,09,55,23.20
2012,08,17,09,56,23.20
2012,08,17,09,57,23.20
2012,08,17,09,58,23.10
2012,08,17,09,59,23.10
2012,08,17,10,00,23.00
2012,08,17,10,01,23.00
2012,08,17,10,02,23.00
2012,08,17,10,03,23.00
2012,08,17,10,04,23.10
2012,08,17,10,05,23.10
2012,08,17,10,06,23.10
2012,08,17,10,07,23.00
2012,08,17,10,08,23.00
2012,08,17,10,09,22.90
2012,08,17,10,10,22.80
2012,08,17,10,11,22.80
2012,08,17,10,12,22.80
2012,08,17,10,13,22.80
2012,08,17,10,14,22.80
2012,08,17,10,15,22.80
2012,08,17,10,16,22.80
2012,08,17,10,17,22.80
2012,08,17,10,18,22.80
2012,08,17,10,19,22.80
2012,08,17,10,20,22.80
2012,08,17,10,21,22.80
2012,08,17,10,22,22.80
2012,08,17,10,23,22.80
2012,08,17,10,24,22.80
2012,08,17,10,25,22.80
2012,08,17,10,26,22.90
2012,08,17,10,27,23.00
2012,08,17,10,28,23.10
2012,08,17,10,29,23.10
2012,08,17,10,30,23.20
2012,08,17,10,31,23.20
2012,08,17,10,32,23.20
2012,08,17,10,33,23.20
2012,08,17,10,34,23.10
2012,08,17,10,35,23.10
2012,08,17,10,36,23.10
2012,08,17,10,37,23.00
2012,08,17,10,38,22.90
2012,08,17,10,39,22.90
2012,08,17,10,40,22.80
2012,08,17,10,41,22.80
2012,08,17,10,42,22.80
2012,08,17,10,43,22.80
2012,08,17,10,44,22.80
2012,08,17,10,45,22.80
2012,08,17,10,46,22.80
2012,08,17,10,47,22.80
2012,08,17,10,48,22.80
2012,08,17,10,49,22.80
2012,08,17,10,50,22.80
2012,08,17,10,51,22.90
2012,08,17,10,52,23.00
2012,08,17,10,53,23.10
2012,08,17,10,54,23.30
2012,08,17,10,55,23.40
2012,08,17,10,56,23.40
2012,08,17,10,57,23.50
2012,08,17,10,58,23.50
2012,08,17,10,59,23.50
2012,08,17,11,00,23.50
2012,08,17,11,01,23.40
2012,08,17,11,02,23.40
2012,08,17,11,03,23.40
2012,08,17,11,04,23.40
2012,08,17,11,05,23.30
2012,08,17,11,06,23.30
2012,08,17,11,07,23.30
2012,08,17,11,08,23.40
2012,08,17,11,09,23.50
2012,08,17,11,10,23.60
2012,08,17,11,11,23.60
2012,08,17,11,12,23.70
2012,08,17,11,13,23.80
2012,08,17,11,14,23.90
2012,08,17,11,15,24.00
2012,08,17,11,16,24.20
2012,08,17,11,17,24.20
2012,08,17,11,18,24.20
2012,08,17,11,19,24.30
2012,08,17,11,20,24.40
2012,08,17,11,21,24.40
2012,08,17,11,22,24.50
2012,08,17,11,23,24.60
2012,08,17,11,24,24.60
2012,08,17,11,25,24.50
2012,08,17,11,26,24.40
2012,08,17,11,27,24.30
2012,08,17,11,28,24.30
2012,08,17,11,29,24.30
2012,08,17,11,30,24.20
2012,08,17,11,31,24.10
2012,08,17,11,32,23.90
2012,08,17,11,33,23.80
2012,08,17,11,34,23.90
2012,08,17,11,35,24.00
2012,08,17,11,36,24.10
2012,08,17,11,37,24.10
2012,08,17,11,38,24.20
2012,08,17,11,39,24.20
2012,08,17,11,40,24.30
2012,08,17,11,41,24.30
2012,08,17,11,42,24.30
2012,08,17,11,43,24.40
2012,08,17,11,44,24.40
2012,08,17,11,45,24.50
2012,08,17,11,46,24.50
2012,08,17,11,47,24.60
2012,08,17,11,48,24.60
2012,08,17,11,49,24.60
2012,08,17,11,50,24.70
2012,08,17,11,51,24.70
2012,08,17,11,52,24.80
2012,08,17,11,53,24.90
2012,08,17,11,54,24.90
2012,08,17,11,55,24.90
2012,08,17,11,56,24.90
2012,08,17,11,57,24.90
2012,08,17,11,58,24.90
2012,08,17,11,59,25.00
2012,08,17,12,00,25.10
2012,08,17,12,01,25.10
2012,08,17,12,02,25.10
2012,08,17,12,03,25.20
2012,08,17,12,04,25.20
2012,08,17,12,05,25.30
2012,08,17,12,06,25.40
2012,08,17,12,07,25.40
2012,08,17,12,08,25.50
2012,08,17,12,09,25.70
2012,08,17,12,10,25.80
2012,08,17,12,11,25.80
2012,08,17,12,12,25.80
2012,08,17,12,13,25.80
2012,08,17,12,14,25.90
2012,08,17,12,15,26.00
2012,08,17,12,16,26.00
2012,08,17,12,17,26.10
2012,08,17,12,18,26.10
2012,08,17,12,19,26.10
2012,08,17,12,20,26.20
2012,08,17,12,21,26.20
2012,08,17,12,22,26.20
2012,08,17,12,23,26.20
2012,08,17,12,24,26.20
2012,08,17,12,25,26.20
2012,08,17,12,26,26.20
2012,08,17,12,27,26.20
2012,08,17,12,28,26.20
2012,08,17,12,29,26.30
2012,08,17,12,30,26.30
2012,08,17,12,31,26.40
2012,08,17,12,32,26.50
2012,08,17,12,33,26.70
2012,08,17,12,34,26.80
2012,08,17,12,35,26.90
2012,08,17,12,36,27.00
2012,08,17,12,37,27.00
2012,08,17,12,38,26.80
2012,08,17,12,39,26.70
2012,08,17,12,40,26.60
2012,08,17,12,41,26.60
2012,08,17,12,42,26.50
2012,08,17,12,43,26.40
2012,08,17,12,44,26.30
2012,08,17,12,45,26.10
2012,08,17,12,46,26.00
2012,08,17,12,47,25.90
2012,08,17,12,48,25.90
2012,08,17,12,49,25.80
2012,08,17,12,50,25.70
2012,08,17,12,51,25.50
2012,08,17,12,52,25.40
2012,08,17,12,53,25.40
2012,08,17,12,54,25.40
2012,08,17,12,55,25.40
2012,08,17,12,56,25.40
2012,08,17,12,57,25.40
2012,08,17,12,58,25.50
2012,08,17,12,59,25.50
2012,08,17,13,00,25.40
2012,08,17,13,01,25.40
2012,08,17,13,02,25.50
2012,08,17,13,03,25.50
2012,08,17,13,04,25.60
2012,08,17,13,05,25.60
2012,08,17,13,06,25.70
2012,08,17,13,07,25.70
2012,08,17,13,08,25.70
2012,08,17,13,09,25.80
2012,08,17,13,10,25.80
2012,08,17,13,11,25.80
2012,08,17,13,12,25.80
2012,08,17,13,13,25.90
2012,08,17,13,14,25.90
2012,08,17,13,15,26.00
2012,08,17,13,16,26.10
2012,08,17,13,17,26.10
2012,08,17,13,18,26.10
2012,08,17,13,19,26.10
2012,08,17,13,20,26.20
2012,08,17,13,21,26.20
2012,08,17,13,22,26.30
2012,08,17,13,23,26.30
2012,08,17,13,24,26.40
2012,08,17,13,25,26.50
2012,08,17,13,26,26.60
2012,08,17,13,27,26.70
2012,08,17,13,28,26.70
2012,08,17,13,29,26.80
2012,08,17,13,30,26.80
2012,08,17,13,31,26.80
2012,08,17,13,32,26.80
2012,08,17,13,33,26.80
2012,08,17,13,34,26.80
2012,08,17,13,35,26.90
2012,08,17,13,36,26.90
2012,08,17,13,37,26.90
2012,08,17,13,38,27.00
2012,08,17,13,39,27.00
2012,08,17,13,40,27.10
2012,08,17,13,41,27.10
2012,08,17,13,42,27.10
2012,08,17,13,43,27.10
2012,08,17,13,44,27.10
2012,08,17,13,45,27.10
2012,08,17,13,46,27.10
2012,08,17,13,47,27.10
2012,08,17,13,48,27.10
2012,08,17,13,49,27.20
2012,08,17,13,50,27.30
2012,08,17,13,51,27.30
2012,08,17,13,52,27.30
2012,08,17,13,53,27.30
2012,08,17,13,54,27.20
2012,08,17,13,55,27.00
2012,08,17,13,56,26.90
2012,08,17,13,57,26.80
2012,08,17,13,58,26.80
2012,08,17,13,59,26.70
2012,08,17,14,00,26.70
2012,08,17,14,01,26.70
2012,08,17,14,02,26.70
2012,08,17,14,03,26.80
2012,08,17,14,04,27.00
2012,08,17,14,05,27.00
2012,08,17,14,06,27.10
2012,08,17,14,07,27.10
2012,08,17,14,08,27.20
2012,08,17,14,09,27.20
2012,08,17,14,10,27.20
2012,08,17,14,11,27.30
2012,08,17,14,12,27.30
2012,08,17,14,13,27.30
2012,08,17,14,14,27.20
2012,08,17,14,15,27.20
2012,08,17,14,16,27.20
2012,08,17,14,17,27.20
2012,08,17,14,18,27.20
2012,08,17,14,19,27.10
2012,08,17,14,20,27.10
2012,08,17,14,21,27.10
2012,08,17,14,22,27.00
2012,08,17,14,23,27.00
2012,08,17,14,24,27.00
2012,08,17,14,25,27.00
2012,08,17,14,26,27.00
2012,08,17,14,27,27.00
2012,08,17,14,28,27.00
2012,08,17,14,29,27.10
2012,08,17,14,30,27.20
2012,08,17,14,31,27.30
2012,08,17,14,32,27.30
2012,08,17,14,33,27.40
2012,08,17,14,34,27.30
2012,08,17,14,35,27.30
2012,08,17,14,36,27.20
2012,08,17,14,37,27.20
2012,08,17,14,38,27.10
2012,08,17,14,39,27.10
2012,08,17,14,40,27.10
2012,08,17,14,41,27.10
2012,08,17,14,42,27.20
2012,08,17,14,43,27.20
2012,08,17,14,44,27.20
2012,08,17,14,45,27.20
2012,08,17,14,46,27.20
2012,08,17,14,47,27.30
2012,08,17,14,48,27.30
2012,08,17,14,49,27.30
2012,08,17,14,50,27.30
2012,08,17,14,51,27.30
2012,08,17,14,52,27.30
2012,08,17,14,53,27.30
2012,08,17,14,54,27.30
2012,08,17,14,55,27.30
2012,08,17,14,56,27.30
2012,08,17,14,57,27.30
2012,08,17,14,58,27.40
2012,08,17,14,59,27.40
2012,08,17,15,00,27.40
2012,08,17,15,01,27.40
2012,08,17,15,02,27.50
2012,08,17,15,03,27.60
2012,08,17,15,04,27.70
2012,08,17,15,05,27.80
2012,08,17,15,06,27.80
2012,08,17,15,07,27.90
2012,08,17,15,08,28.00
2012,08,17,15,09,28.20
2012,08,17,15,10,28.30
2012,08,17,15,11,28.40
2012,08,17,15,12,28.40
2012,08,17,15,13,28.40
2012,08,17,15,14,28.30
2012,08,17,15,15,28.30
2012,08,17,15,16,28.30
2012,08,17,15,17,28.30
2012,08,17,15,18,28.20
2012,08,17,15,19,28.20
2012,08,17,15,20,28.20
2012,08,17,15,21,28.20
2012,08,17,15,22,28.20
2012,08,17,15,23,28.20
2012,08,17,15,24,28.20
2012,08,17,15,25,28.20
2012,08,17,15,26,28.20
2012,08,17,15,27,28.20
2012,08,17,15,28,28.20
2012,08,17,15,29,28.20
2012,08,17,15,30,28.20
2012,08,17,15,31,28.30
2012,08,17,15,32,28.30
2012,08,17,15,33,28.30
2012,08,17,15,34,28.30
2012,08,17,15,35,28.30
2012,08,17,15,36,28.30
2012,08,17,15,37,28.30
2012,08,17,15,38,28.30
2012,08,17,15,39,28.40
2012,08,17,15,40,28.50
2012,08,17,15,41,28.60
2012,08,17,15,42,28.60
2012,08,17,15,43,28.60
2012,08,17,15,44,28.60
2012,08,17,15,45,28.60
2012,08,17,15,46,28.50
2012,08,17,15,47,28.50
2012,08,17,15,48,28.40
2012,08,17,15,49,28.30
2012,08,17,15,50,28.20
2012,08,17,15,51,28.10
2012,08,17,15,52,28.00
2012,08,17,15,53,28.00
2012,08,17,15,54,27.90
2012,08,17,15,55,27.90
2012,08,17,15,56,27.80
2012,08,17,15,57,27.80
2012,08,17,15,58,27.80
2012,08,17,15,59,27.80
2012,08,17,16,00,27.80
2012,08,17,16,01,27.90
2012,08,17,16,02,28.10
2012,08,17,16,03,28.20
2012,08,17,16,04,28.30
2012,08,17,16,05,28.40
2012,08,17,16,06,28.50
2012,08,17,16,07,28.60
2012,08,17,16,08,28.70
2012,08,17,16,09,28.70
2012,08,17,16,10,28.70
2012,08,17,16,11,28.70
2012,08,17,16,12,28.80
2012,08,17,16,13,28.80
2012,08,17,16,14,28.90
2012,08,17,16,15,28.90
2012,08,17,16,16,29.00
2012,08,17,16,17,29.00
2012,08,17,16,18,29.00
2012,08,17,16,19,29.00
2012,08,17,16,20,28.90
2012,08,17,16,21,28.90
2012,08,17,16,22,28.90
2012,08,17,16,23,28.90
2012,08,17,16,24,28.90
2012,08,17,16,25,29.00
2012,08,17,16,26,29.00
2012,08,17,16,27,29.10
2012,08,17,16,28,29.10
2012,08,17,16,29,29.10
2012,08,17,16,30,29.10
2012,08,17,16,31,29.10
2012,08,17,16,32,29.20
2012,08,17,16,33,29.20
2012,08,17,16,34,29.30
2012,08,17,16,35,29.30
2012,08,17,16,36,29.30
2012,08,17,16,37,29.30
2012,08,17,16,38,29.30
2012,08,17,16,39,29.30
2012,08,17,16,40,29.20
2012,08,17,16,41,29.10
2012,08,17,16,42,29.00
2012,08,17,16,43,28.90
2012,08,17,16,44,28.90
2012,08,17,16,45,28.90
2012,08,17,16,46,28.80
2012,08,17,16,47,28.90
2012,08,17,16,48,28.90
2012,08,17,16,49,28.90
2012,08,17,16,50,29.00
2012,08,17,16,51,29.00
2012,08,17,16,52,29.10
2012,08,17,16,53,29.10
2012,08,17,16,54,29.20
2012,08,17,16,55,29.30
2012,08,17,16,56,29.30
2012,08,17,16,57,29.30
2012,08,17,16,58,29.30
2012,08,17,16,59,29.40
2012,08,17,17,00,29.40
2012,08,17,17,01,29.50
2012,08,17,17,02,29.60
2012,08,17,17,03,29.60
2012,08,17,17,04,29.60
2012,08,17,17,05,29.70
2012,08,17,17,06,29.70
2012,08,17,17,07,29.70
2012,08,17,17,08,29.70
2012,08,17,17,09,29.80
2012,08,17,17,10,29.80
2012,08,17,17,11,29.80
2012,08,17,17,12,29.90
2012,08,17,17,13,30.00
2012,08,17,17,14,30.00
2012,08,17,17,15,30.10
2012,08,17,17,16,30.10
2012,08,17,17,17,30.20
2012,08,17,17,18,30.30
2012,08,17,17,19,30.40